EW7149 Weather Reports


Display with metric or nautical units.
time (UTC)temp
F
wind
direction
speed
MPH
gust
MPH
rain 1hr
in
rain 24hr
in
rain mn
in
humidity
%
barometer
mb
20260510092113 51 351 0.0 0.0 0.00 0.00 0.00 1 1011.0
20260510091619 51 351 0.0 0.0 0.00 0.00 0.00 1 1011.0
20260510091103 51 351 0.0 0.0 0.00 0.00 0.00 1 1011.0
20260510090043 51 351 0.0 0.0 0.00 0.00 0.00 1 1010.9
20260510085527 51 351 0.0 0.0 0.00 0.00 0.00 1 1011.0
20260510084518 52 351 0.0 0.0 0.00 0.00 0.00 1 1011.0
20260510084026 51 351 0.0 0.0 0.00 0.00 0.00 1 1011.0
20260510083522 51 351 0.0 0.0 0.00 0.00 0.00 1 1011.0
20260510083012 51 351 0.0 0.0 0.00 0.00 0.00 1 1010.9
20260510082505 51 351 0.0 0.0 0.00 0.00 0.00 1 1010.9
20260510082015 51 351 0.0 0.0 0.00 0.00 0.00 1 1010.9
20260510081500 51 351 0.0 0.0 0.00 0.00 0.00 1 1010.9
20260510081006 51 351 0.0 0.0 0.00 0.00 0.00 1 1010.9
20260510080512 51 351 0.0 0.0 0.00 0.00 0.00 1 1010.9
20260510080014 51 351 0.0 0.0 0.00 0.00 0.00 1 1010.9
20260510075021 51 355 0.0 0.0 0.00 0.00 0.00 1 1010.9
20260510074530 51 355 0.0 0.0 0.00 0.00 0.00 1 1010.8
20260510074029 51 355 0.0 0.0 0.00 0.00 0.00 1 1010.7
20260510073511 51 355 0.0 0.0 0.00 0.00 0.00 1 1010.5
20260510072952 51 355 0.0 0.0 0.00 0.00 0.00 1 1010.5
20260510072448 51 355 0.0 0.0 0.00 0.00 0.00 1 1010.5
20260510071957 51 355 0.0 0.0 0.00 0.00 0.00 1 1010.5
20260510071447 50 355 0.0 0.0 0.00 0.00 0.00 1 1010.4
20260510070938 50 355 0.0 0.0 0.00 0.00 0.00 1 1010.3
20260510070421 50 355 0.0 0.0 0.00 0.00 0.00 1 1010.4
20260510065905 50 355 0.0 0.0 0.00 0.00 0.00 1 1010.3
20260510065355 50 355 0.0 0.0 0.00 0.00 0.00 1 1010.2
20260510064904 50 355 0.0 0.0 0.00 0.00 0.00 1 1010.1
20260510063842 51 355 0.0 0.0 0.00 0.00 0.00 1 1009.9
20260510062815 51 355 0.0 0.0 0.00 0.00 0.00 1 1009.9
20260510062325 51 355 0.0 0.0 0.00 0.00 0.00 1 1009.9
20260510061819 51 355 0.0 0.0 0.00 0.00 0.00 1 1009.9
20260510061306 51 355 0.0 0.0 0.00 0.00 0.00 1 1010.0
20260510060759 51 355 0.0 0.0 0.00 0.00 0.00 1 1009.9
20260510060306 51 355 0.0 0.0 0.00 0.00 0.00 1 1009.9
20260510055306 51 355 0.0 0.0 0.00 0.00 0.00 1 1009.8
20260510054807 51 355 0.0 0.0 0.00 0.00 0.00 1 1009.9
20260510054303 51 355 0.0 0.0 0.00 0.00 0.00 1 1010.0
20260510053800 51 355 0.0 0.0 0.00 0.00 0.00 1 1010.0
20260510053250 51 355 0.0 0.0 0.00 0.00 0.00 1 1010.1
20260510052738 51 355 0.0 0.0 0.00 0.00 0.00 1 1010.0
20260510052243 51 355 0.0 0.0 0.00 0.00 0.00 1 1010.0
20260510051237 51 355 0.0 0.0 0.00 0.00 0.00 1 1010.0
20260510050720 52 355 0.0 0.0 0.00 0.00 0.00 1 1010.0
20260510050207 52 355 0.0 0.0 0.00 0.00 0.00 1 1010.1
20260510045716 52 355 0.0 0.0 0.00 0.00 0.00 1 1010.1
20260510045159 52 355 0.0 0.0 0.00 0.00 0.00 1 1010.1
20260510044642 52 355 0.0 0.0 0.00 0.00 0.00 1 1010.2
20260510044126 52 355 0.0 0.0 0.00 0.00 0.00 1 1010.2
20260510043619 52 355 0.0 0.0 0.00 0.00 0.00 1 1010.1
20260510043102 52 355 0.0 0.0 0.00 0.00 0.00 1 1010.2
20260510042549 52 355 0.0 0.0 0.00 0.00 0.00 1 1010.2
20260510042048 52 355 0.0 0.0 0.00 0.00 0.00 1 1010.2
20260510041537 53 355 0.0 0.0 0.00 0.00 0.00 1 1010.2
20260510041044 53 355 0.0 0.0 0.00 0.00 0.00 1 1010.1
20260510040530 53 355 0.0 0.0 0.00 0.00 0.00 1 1010.2
20260510040022 53 355 0.0 0.0 0.00 0.00 0.00 1 1010.1
20260510035520 53 355 0.0 0.0 0.00 0.00 0.00 1 1010.2
20260510035009 53 355 0.0 0.0 0.00 0.00 0.00 1 1010.1
20260510034022 54 355 0.0 0.0 0.00 0.00 0.00 1 1010.2
20260510033507 54 355 0.0 0.0 0.00 0.00 0.00 1 1010.2
20260510033016 54 355 0.0 0.0 0.00 0.00 0.00 1 1010.2
20260510032520 54 355 0.0 0.0 0.00 0.00 0.00 1 1010.2
20260510032005 54 355 0.0 0.0 0.00 0.00 0.00 1 1010.1
20260510031449 55 355 0.0 0.0 0.00 0.00 0.00 1 1010.2
20260510030948 55 355 0.0 0.0 0.00 0.00 0.00 1 1010.1
20260510030454 55 355 0.0 0.0 0.00 0.00 0.00 1 1010.1
20260510030002 55 355 0.0 0.0 0.00 0.00 0.00 1 1010.1
20260510025501 56 355 0.0 0.0 0.00 0.00 0.00 1 1010.0
20260510025000 56 355 0.0 0.0 0.00 0.00 0.00 1 1010.0
20260510024452 56 355 0.0 0.0 0.00 0.00 0.00 1 1010.0
20260510023936 56 355 0.0 0.0 0.00 0.00 0.00 1 1010.0
20260510023428 57 355 0.0 0.0 0.00 0.00 0.00 1 1009.9
20260510022417 57 355 0.0 0.0 0.00 0.00 0.00 9 1009.7
20260510021401 58 355 0.0 0.0 0.00 0.00 0.00 14 1009.7
20260510020857 58 355 0.0 0.0 0.00 0.00 0.00 18 1009.6
20260510020344 58 355 0.0 0.0 0.00 0.00 0.00 20 1009.6
20260510015838 58 355 0.0 0.0 0.00 0.00 0.00 19 1009.6
20260510015343 59 355 0.0 0.0 0.00 0.00 0.00 19 1009.6
20260510014319 59 355 0.0 0.0 0.00 0.00 0.00 18 1009.5
20260510013829 60 355 0.0 0.0 0.00 0.00 0.00 18 1009.5
20260510013337 60 355 0.0 0.0 0.00 0.00 0.00 21 1009.4
20260510012822 60 355 0.0 0.0 0.00 0.00 0.00 23 1009.3
20260510012327 60 355 0.0 0.0 0.00 0.00 0.00 24 1009.2
20260510011342 61 355 0.0 0.0 0.00 0.00 0.00 21 1009.0
20260510010845 61 355 0.0 0.0 0.00 0.00 0.00 22 1008.9
20260510010348 61 355 0.0 0.0 0.00 0.00 0.00 26 1008.8
20260510005858 61 355 0.0 0.0 0.00 0.00 0.00 30 1008.7
20260510005359 61 355 0.0 0.0 0.00 0.00 0.00 35 1008.7
20260510004404 62 355 0.0 0.0 0.00 0.00 0.00 36 1008.6
20260510003901 62 355 0.0 0.0 0.00 0.00 0.00 44 1008.5
20260510002847 63 355 0.0 0.0 0.00 0.00 0.00 53 1008.4
20260510002340 63 355 0.0 0.0 0.00 0.00 0.00 54 1008.5
20260510001841 64 355 0.0 0.0 0.00 0.00 0.00 55 1008.4
20260510001342 64 355 0.0 0.0 0.00 0.00 0.00 56 1008.5
20260510000326 65 355 0.0 0.0 0.00 0.00 0.00 57 1008.5
20260509235833 66 355 0.0 0.0 0.00 0.00 0.00 57 1008.5
20260509235320 66 355 0.0 0.0 0.00 0.00 0.00 58 1008.5
20260509234810 67 355 0.0 0.0 0.00 0.00 0.00 58 1008.4
20260509234304 67 355 0.0 0.0 0.00 0.00 0.00 58 1008.3
20260509233809 68 355 0.0 0.0 0.00 0.00 0.00 58 1008.3
20260509233303 68 355 0.0 0.0 0.00 0.00 0.00 58 1008.4
20260509232813 69 355 0.0 0.0 0.00 0.00 0.00 58 1008.2
20260509232255 69 255 0.0 0.0 0.00 0.00 0.00 57 1008.2
20260509231800 70 113 0.0 0.0 0.00 0.00 0.00 57 1008.2
20260509230803 70 113 0.0 0.0 0.00 0.00 0.00 57 1008.1
20260509230257 70 113 0.0 0.0 0.00 0.00 0.00 57 1008.1
20260509225803 70 113 0.0 0.0 0.00 0.00 0.00 57 1008.2
20260509224802 70 113 0.0 0.0 0.00 0.00 0.00 57 1008.0
20260509224308 70 113 0.0 0.0 0.00 0.00 0.00 57 1008.0
20260509223255 70 113 0.0 0.0 0.00 0.00 0.00 57 1008.1
20260509222746 70 113 0.0 0.0 0.00 0.00 0.00 57 1008.1
20260509222238 70 113 0.0 0.0 0.00 0.00 0.00 57 1008.1
20260509221743 70 113 0.0 0.0 0.00 0.00 0.00 57 1008.0
20260509220211 70 141 0.0 0.0 0.00 0.00 0.00 57 1008.1
20260509215700 70 141 0.0 0.0 0.00 0.00 0.00 57 1008.1
20260509214702 70 142 0.0 0.0 0.00 0.00 0.00 57 1008.2
20260509214159 69 92 0.0 0.0 0.00 0.00 0.00 57 1008.2
20260509213657 69 92 0.0 0.0 0.00 0.00 0.00 57 1008.2
20260509213138 69 103 0.0 0.0 0.00 0.00 0.00 57 1008.2
20260509212629 69 103 0.0 0.0 0.00 0.00 0.00 57 1008.2
20260509212123 69 103 0.0 0.0 0.00 0.00 0.00 57 1008.2
20260509211606 69 103 0.0 1.0 0.00 0.00 0.00 57 1008.3
20260509211113 69 84 0.0 0.0 0.00 0.00 0.00 58 1008.3
20260509210622 69 144 0.0 0.0 0.00 0.00 0.00 58 1008.3
20260509205058 69 144 0.0 2.0 0.00 0.00 0.00 57 1008.2
20260509204601 69 147 0.0 0.0 0.00 0.00 0.00 57 1008.1
20260509204056 69 147 0.0 0.0 0.00 0.00 0.00 57 1008.2
20260509203538 69 151 0.0 0.0 0.00 0.00 0.00 56 1008.2
20260509202520 69 182 0.0 1.0 0.00 0.00 0.00 57 1008.3
20260509202002 69 184 0.0 0.0 0.00 0.00 0.00 57 1008.2
20260509201506 69 184 0.0 0.0 0.00 0.00 0.00 57 1008.2
20260509201013 69 184 0.0 0.0 0.00 0.00 0.00 57 1008.2
20260509200517 69 184 0.0 0.0 0.00 0.00 0.00 57 1008.3
20260509200021 68 184 0.0 0.0 0.00 0.00 0.00 57 1008.2
20260509195531 68 184 0.0 0.0 0.00 0.00 0.00 57 1008.4
20260509195029 68 138 0.0 0.0 0.00 0.00 0.00 57 1008.4
20260509194515 68 225 0.0 0.0 0.00 0.00 0.00 57 1008.6
20260509193959 68 38 0.0 0.0 0.00 0.00 0.00 58 1008.6
20260509193000 68 38 0.0 0.0 0.00 0.00 0.00 57 1008.6
20260509192507 68 330 0.0 0.0 0.00 0.00 0.00 57 1008.7
20260509191453 69 329 0.0 0.0 0.00 0.00 0.00 56 1008.8
20260509190441 69 173 0.0 1.0 0.00 0.00 0.00 56 1008.9
20260509185934 68 180 0.0 0.0 0.00 0.00 0.00 56 1008.9
20260509185426 68 237 0.0 0.0 0.00 0.00 0.00 57 1008.9
20260509184932 68 123 0.0 0.0 0.00 0.00 0.00 57 1009.0
20260509184423 67 121 0.0 0.0 0.00 0.00 0.00 57 1009.0
20260509183920 67 119 0.0 1.0 0.00 0.00 0.00 57 1009.0
20260509183427 66 142 0.0 2.0 0.00 0.00 0.00 58 1009.0
20260509182908 66 306 0.0 0.0 0.00 0.00 0.00 58 1009.1
20260509182416 66 304 0.0 1.0 0.00 0.00 0.00 57 1009.2
20260509181905 66 287 0.0 0.0 0.00 0.00 0.00 57 1009.6
20260509180849 66 314 0.0 0.0 0.00 0.00 0.00 57 1009.8
20260509180358 66 266 0.0 0.0 0.00 0.00 0.00 58 1009.9
20260509175337 64 22 0.0 0.0 0.00 0.00 0.00 58 1009.9
20260509174832 64 340 0.0 1.0 0.00 0.00 0.00 57 1010.2
20260509173826 64 106 0.0 0.0 0.00 0.00 0.00 58 1010.5
20260509173332 64 106 0.0 0.0 0.00 0.00 0.00 57 1010.6
20260509171812 64 114 0.0 0.0 0.00 0.00 0.00 57 1010.4
20260509171259 64 105 0.0 1.0 0.00 0.00 0.00 57 1010.3
20260509170804 64 312 0.0 0.0 0.00 0.00 0.00 58 1010.3
20260509170308 64 299 0.0 0.0 0.00 0.00 0.00 58 1010.2
20260509165806 64 266 0.0 0.0 0.00 0.00 0.00 57 1010.4
20260509164739 65 279 0.0 0.0 0.00 0.00 0.00 56 1010.4
20260509164243 65 279 0.0 0.0 0.00 0.00 0.00 57 1010.3
20260509163749 65 279 0.0 0.0 0.00 0.00 0.00 55 1010.5
20260509163253 65 279 0.0 1.0 0.00 0.00 0.00 56 1010.4
20260509162749 65 290 0.0 1.0 0.00 0.00 0.00 56 1010.4
20260509162232 65 345 0.0 0.0 0.00 0.00 0.00 55 1010.5
20260509161722 65 239 0.0 3.0 0.00 0.00 0.00 56 1010.5
20260509161204 65 283 0.0 0.0 0.00 0.00 0.00 57 1010.5
20260509160658 65 283 0.0 0.0 0.00 0.00 0.00 56 1010.5
20260509160158 64 265 0.0 0.0 0.00 0.00 0.00 56 1010.4
20260509155647 64 265 0.0 0.0 0.00 0.00 0.00 56 1010.5
20260509155139 65 246 0.0 0.0 0.00 0.00 0.00 57 1010.4
20260509154643 65 225 0.0 0.0 0.00 0.00 0.00 56 1010.5
20260509154140 65 196 0.0 0.0 0.00 0.00 0.00 56 1010.5
20260509153110 64 61 0.0 0.0 0.00 0.00 0.00 58 1010.6
20260509152614 63 61 0.0 0.0 0.00 0.00 0.00 58 1010.6
20260509152057 63 27 0.0 0.0 0.00 0.00 0.00 57 1010.7
20260509151037 61 168 0.0 0.0 0.00 0.00 0.00 58 1010.8
20260509150518 61 169 0.0 0.0 0.00 0.00 0.00 56 1011.0
20260509150007 60 168 0.0 0.0 0.00 0.00 0.00 55 1011.1
20260509145448 60 168 0.0 0.0 0.00 0.00 0.00 55 1011.2
20260509144942 60 168 0.0 0.0 0.00 0.00 0.00 55 1011.0
20260509143947 60 168 0.0 0.0 0.00 0.00 0.00 57 1011.0
20260509142924 59 168 0.0 0.0 0.00 0.00 0.00 58 1011.2
20260509142423 59 168 0.0 0.0 0.00 0.00 0.00 57 1011.0
20260509141412 59 148 0.0 0.0 0.00 0.00 0.00 58 1011.0
20260509140922 59 148 0.0 0.0 0.00 0.00 0.00 58 1010.9
20260509140424 58 148 0.0 0.0 0.00 0.00 0.00 58 1010.8
20260509135923 58 148 0.0 0.0 0.00 0.00 0.00 58 1010.8
20260509134426 58 145 0.0 1.0 0.00 0.00 0.00 58 1010.8
20260509133435 58 150 0.0 0.0 0.00 0.00 0.00 58 1010.7
20260509132926 58 148 0.0 1.0 0.00 0.00 0.00 58 1010.6
20260509132422 58 148 0.0 0.0 0.00 0.00 0.00 58 1010.6
20260509131908 58 159 0.0 0.0 0.00 0.00 0.00 58 1010.6
20260509131417 58 161 0.0 0.0 0.00 0.00 0.00 58 1010.6
20260509130412 58 144 0.0 0.0 0.00 0.00 0.00 59 1010.7
20260509125912 58 148 0.0 4.0 0.00 0.00 0.00 59 1010.7
20260509125402 58 160 0.0 0.0 0.00 0.00 0.00 59 1010.9
20260509124908 58 163 0.0 0.0 0.00 0.00 0.00 59 1010.9
20260509124357 57 140 0.0 0.0 0.00 0.00 0.00 59 1010.8
20260509123851 57 140 0.0 1.0 0.00 0.00 0.00 59 1010.8
20260509123353 57 158 0.0 0.0 0.00 0.00 0.00 59 1010.9
20260509122323 57 157 0.0 0.0 0.00 0.00 0.00 59 1010.8
20260509121326 57 164 0.0 0.0 0.00 0.00 0.00 59 1010.9
20260509120808 57 163 0.0 0.0 0.00 0.00 0.00 59 1010.9
20260509120313 56 155 0.0 0.0 0.00 0.00 0.00 59 1010.9
20260509115819 56 154 0.0 0.0 0.00 0.00 0.00 59 1010.9
20260509115327 56 150 0.0 2.0 0.00 0.00 0.00 59 1010.8
20260509114828 56 152 0.0 0.0 0.00 0.00 0.00 59 1010.8
20260509114336 56 150 0.0 0.0 0.00 0.00 0.00 59 1010.8
20260509113825 56 150 0.0 4.0 0.00 0.00 0.00 59 1010.8
20260509113316 56 147 0.0 1.0 0.00 0.00 0.00 59 1010.7
20260509112813 56 146 0.0 0.0 0.00 0.00 0.00 59 1010.5
20260509112308 56 146 0.0 0.0 0.00 0.00 0.00 59 1010.5
20260509111307 56 151 0.0 0.0 0.00 0.00 0.00 59 1010.4
20260509110757 56 152 0.0 0.0 0.00 0.00 0.00 59 1010.2
20260509110259 55 152 0.0 0.0 0.00 0.00 0.00 59 1010.2
20260509104814 55 161 0.0 0.0 0.00 0.00 0.00 59 1010.0
20260509104319 55 161 0.0 0.0 0.00 0.00 0.00 59 1010.0
20260509103813 55 165 0.0 0.0 0.00 0.00 0.00 59 1010.1
20260509103302 55 165 0.0 0.0 0.00 0.00 0.00 59 1010.1
20260509102811 55 165 0.0 0.0 0.00 0.00 0.00 59 1010.1
20260509102317 55 165 0.0 0.0 0.00 0.00 0.00 59 1010.1
20260509101307 55 142 0.0 0.0 0.00 0.00 0.00 59 1010.2
20260509100801 55 167 0.0 0.0 0.00 0.00 0.00 59 1010.1
20260509100255 55 167 0.0 0.0 0.00 0.00 0.00 59 1010.1
20260509095248 55 159 0.0 0.0 0.00 0.00 0.00 59 1010.0
20260509094258 55 163 0.0 0.0 0.00 0.00 0.00 59 1010.0
20260509093754 55 149 0.0 0.0 0.00 0.00 0.00 59 1010.0
20260509092744 55 150 0.0 0.0 0.00 0.00 0.00 59 1010.2